Kansas City International Airport Airport (MCI)

 

Airport Diagram
Current Weather/Forecast (VFR Conditions)
METAR KMCI 272353Z 31004KT 10SM FEW030 BKN120 OVC250 22/18 A2984 RMK AO2 SLP097 T02220183 10244 20222 56004
TAF KMCI 272336Z 2800/2824 26003KT P6SM VCSH SCT025 OVC050 TEMPO 2800/2804 5SM -RA BR SCT015 BKN030 FM280500 30003KT P6SM BKN009 OVC025 FM280900 31005KT 5SM -RA BR BKN007 OVC015 FM281600 33007KT P6SM VCSH BKN015

All Charts
General
Chart Name Download
AIRPORT DIAGRAM
TAKEOFF MINIMUMS
ALTERNATE MINIMUMS
HOT SPOT

Departures
Chart Name Download
CHIEF SEVEN
LAKES THREE
RACER SEVEN
ROYAL NINE
TIFTO SIX
WILDCAT FIVE

Arrivals
Chart Name Download
BRAYMER SIX
BRAYMER SIX, CONT.1
JHAWK SIX
JHAWK SIX, CONT.1
ROBINSON FOUR
ROBINSON FOUR, CONT.1
TYGER SIX
TYGER SIX, CONT.1

Approaches
Chart Name Download
ILS OR LOC RWY 01L
ILS OR LOC RWY 01R
ILS OR LOC RWY 09
ILS OR LOC RWY 19L
ILS OR LOC RWY 19R
ILS OR LOC RWY 27
ILS RWY 01R (SA CAT I)
ILS RWY 19R (SA CAT I)
ILS RWY 01R (CAT II - III)
ILS RWY 19R (CAT II - III)
RNAV (RNP) Z RWY 01L
RNAV (RNP) Z RWY 01R
RNAV (RNP) Z RWY 09
RNAV (RNP) Z RWY 19L
RNAV (RNP) Z RWY 19R
RNAV (RNP) Z RWY 27
RNAV (GPS) Y RWY 01L
RNAV (GPS) Y RWY 01R
RNAV (GPS) Y RWY 09
RNAV (GPS) Y RWY 19L
RNAV (GPS) Y RWY 19R
RNAV (GPS) Y RWY 27


Inbound Traffic (Arrivals)

No inbound traffic.


Outbound Traffic (Departures)

No outbound traffic.